Simultaneous Nadir Overpasses (SNOs) Predictions

Prediction of SNOs between NPP and METOP-C Satellite Orbit:

Table of predicted SNOs for the next 14.0 days since TLE Epoch: 7/6/2024
Index Date (NPP) Time (NPP) Lat,Lon (NPP) SZA (NPP ) Date (METOP-C) Time (METOP-C) Lat,Lon (METOP-C) SZA (METOP-C ) Distance(km) Time Diff (sec)
1 07/11/2024 08:59:29 73.39, 35.58 51.64 07/11/2024 09:00:36 73.32, 38.07 51.41 79.58 67
2 07/11/2024 09:50:11 -73.30,-156.90 128.46 07/11/2024 09:51:20 -73.25,-154.75 128.64 69.02 69
3 07/11/2024 10:40:53 73.09, 10.87 51.32 07/11/2024 10:42:04 73.00, 12.02 51.14 38.73 71
4 07/11/2024 11:31:35 -73.00, 178.38 128.78 07/11/2024 11:32:47 -72.98, 179.32 128.87 30.61 72
5 07/11/2024 12:22:17 72.79, -13.86 50.99 07/11/2024 12:23:30 72.77, -13.79 50.95 2.81 73
6 07/11/2024 13:13:00 -72.75, 153.53 129.05 07/11/2024 13:14:13 -72.76, 153.51 129.05 1.40 73
7 07/11/2024 14:03:46 72.74, -39.13 50.95 07/11/2024 14:04:52 72.75, -39.17 50.95 2.21 66
8 07/11/2024 14:54:30 -72.75, 128.16 129.04 07/11/2024 14:55:35 -72.74, 128.13 129.06 1.53 65
9 07/11/2024 15:45:16 72.74, -64.51 50.96 07/11/2024 15:46:14 72.73, -64.55 50.94 1.69 58
10 07/11/2024 16:36:00 -72.75, 102.78 129.03 07/11/2024 16:36:56 -72.77, 102.85 129.03 3.16 56
11 07/11/2024 17:26:45 72.74, -89.88 50.97 07/11/2024 17:27:34 72.76, -89.83 50.98 3.24 49
12 07/11/2024 18:17:29 -72.75, 77.41 129.02 07/11/2024 18:18:17 -72.75, 77.47 129.03 2.06 48
13 07/11/2024 19:08:15 72.74,-115.26 50.98 07/11/2024 19:08:56 72.74,-115.21 50.97 1.55 41
14 07/11/2024 19:58:59 -72.75, 52.03 129.01 07/11/2024 19:59:39 -72.73, 52.09 129.04 2.99 40
15 07/11/2024 20:49:45 72.74,-140.63 50.99 07/11/2024 20:50:18 72.72,-140.59 50.96 2.24 33
16 07/11/2024 21:40:28 -72.70, 26.76 129.05 07/11/2024 21:41:01 -72.71, 26.71 129.05 2.04 33
17 07/11/2024 22:31:14 72.69,-165.90 50.94 07/11/2024 22:31:40 72.70,-165.98 50.95 2.82 26
18 07/11/2024 23:21:58 -72.70, 1.38 129.04 07/11/2024 23:22:23 -72.69, 1.32 129.06 2.35 25
19 07/12/2024 00:12:44 72.69, 168.72 50.95 07/12/2024 00:13:02 72.68, 168.64 50.94 2.70 18
20 07/12/2024 01:03:28 -72.70, -23.99 129.03 07/12/2024 01:03:44 -72.72, -23.95 129.02 2.44 16
21 07/12/2024 01:54:14 72.69, 143.35 50.96 07/12/2024 01:54:23 72.71, 143.37 50.98 2.64 9
22 07/12/2024 02:44:58 -72.70, -49.37 129.02 07/12/2024 02:45:06 -72.70, -49.33 129.03 1.13 8
23 07/12/2024 03:35:44 72.69, 117.97 50.97 07/12/2024 03:35:45 72.69, 117.98 50.97 0.55 1
24 07/12/2024 04:26:28 -72.70, -74.74 129.01 07/12/2024 04:26:28 -72.68, -74.71 129.03 2.67 0
25 07/12/2024 05:17:14 72.69, 92.59 50.98 07/12/2024 05:17:07 72.67, 92.60 50.97 2.10 7
26 07/12/2024 06:07:57 -72.65,-100.01 129.06 07/12/2024 06:07:50 -72.66,-100.10 129.04 2.84 7
27 07/12/2024 06:58:43 72.64, 67.32 50.94 07/12/2024 06:58:29 72.65, 67.22 50.96 3.57 14
28 07/12/2024 07:49:27 -72.65,-125.39 129.05 07/12/2024 07:49:12 -72.64,-125.48 129.05 3.25 15
29 07/12/2024 08:40:14 72.69, 41.84 51.00 07/12/2024 08:39:50 72.68, 41.94 50.99 3.54 24
30 07/12/2024 09:30:57 -72.65,-150.77 129.03 07/12/2024 09:30:33 -72.67,-150.75 129.01 1.92 24
31 07/12/2024 10:21:43 72.64, 16.57 50.96 07/12/2024 10:21:12 72.66, 16.56 50.99 2.30 31
32 07/12/2024 11:12:27 -72.65,-176.14 129.02 07/12/2024 11:11:55 -72.65,-176.14 129.02 0.45 32
33 07/12/2024 12:03:13 72.64, -8.81 50.97 07/12/2024 12:02:34 72.64, -8.82 50.98 0.46 39
34 07/12/2024 12:53:57 -72.66, 158.48 129.01 07/12/2024 12:53:17 -72.63, 158.48 129.03 2.71 40
35 07/12/2024 13:44:43 72.64, -34.18 50.98 07/12/2024 13:43:56 72.62, -34.20 50.97 2.45 47
36 07/12/2024 14:35:27 -72.66, 133.11 129.00 07/12/2024 14:34:38 -72.66, 133.21 128.99 3.32 49
37 07/12/2024 15:26:13 72.64, -59.56 50.99 07/12/2024 15:25:17 72.65, -59.48 51.01 2.80 56
38 07/12/2024 16:16:57 -72.66, 107.73 128.99 07/12/2024 16:16:00 -72.64, 107.82 129.00 3.50 57
39 07/12/2024 17:07:43 72.64, -84.93 51.00 07/12/2024 17:06:39 72.63, -84.86 51.00 2.78 64
40 07/12/2024 17:58:26 -72.61, 82.46 129.04 07/12/2024 17:57:22 -72.62, 82.44 129.01 1.75 64
41 07/12/2024 18:49:12 72.59,-110.20 50.96 07/12/2024 18:48:01 72.61,-110.24 50.99 2.31 71
42 07/12/2024 19:39:56 -72.61, 57.08 129.03 07/12/2024 19:38:44 -72.60, 57.06 129.01 0.97 72
43 07/12/2024 20:30:39 72.44,-135.27 50.80 07/12/2024 20:29:26 72.44,-135.93 50.85 22.08 73
44 07/12/2024 21:21:22 -72.40, 32.12 129.24 07/12/2024 21:20:09 -72.43, 31.37 129.15 25.08 73
45 07/12/2024 22:12:03 72.13,-160.05 50.48 07/12/2024 22:10:54 72.11,-161.91 50.58 63.73 69
46 07/12/2024 23:02:46 -72.10, 7.34 129.56 07/12/2024 23:01:37 -72.10, 5.40 129.42 66.36 69



Historial Predications of SNOs between NPP and METOP-C
